Weather History for KMOX - June, 2012

Change the Weather History Date:

Saturday, June 9, 2012

  Actual Average Record
Temperature  
Mean Temperature 78 °F -  
Max Temperature 93 °F 71 °F 98 °F (2015)
Min Temperature 62 °F 52 °F 44 °F (2011)
Cooling Degree Days 12    
Growing Degree Days 28 (Base 50)    
Moisture  
Dew Point 49 °F    
Average Humidity 38    
Maximum Humidity 72    
Minimum Humidity 19    
Precipitation  
Precipitation 0.00 in - - ()
Sea Level Pressure  
Sea Level Pressure 29.61 in    
Wind  
Wind Speed 13 mph (South)    
Max Wind Speed 28 mph    
Max Gust Speed 36 mph    
Visibility 10 miles    
Events      
Averages and records for this station are not official NWS values.
T = Trace of Precipitation, MM = Missing Value Source: NWS Daily Summary

Daily Weather History Graph

Daily Weather History Graph

Search for Another Location

Airport or City:

Trip Planner

Search our weather history database for the weather conditions in past years. The results will help you decide how hot, cold, wet, or windy it might be!

Date:

Astronomy

Jun. 09, 2012 Rise Set
Actual Time 5:34 AM CDT 9:11 PM CDT
Civil Twilight 4:57 AM CDT 9:49 PM CDT
Nautical Twilight 4:07 AM CDT 10:39 PM CDT
Astronomical Twilight 3:00 AM CDT 11:47 PM CDT
Moon 12:22 AM CDT (6/9) 11:35 AM CDT (6/9)
Length of Visible Light 16h 52m
Length of Day
15h 36m
Waning Gibbous, 68% of the Moon is Illuminated
Jun 9
Waning Gibbous
Jun 11
Last Quarter
Jun 19
New
Jun 26
First Quarter
Jul 3
Full

Hourly Weather History & Observations

Time (CDT) Temp. Dew Point Humidity Pressure Visibility Wind Dir Wind Speed Gust Speed Precip Events Conditions
12:13 AM 71.6 °F 51.8 °F 50% 29.70 in 10.0 mi South 9.2 mph - N/A   Clear
12:32 AM 71.6 °F 51.8 °F 50% 29.70 in 10.0 mi South 9.2 mph - N/A   Clear
12:52 AM 71.6 °F 51.8 °F 50% 29.69 in 10.0 mi South 10.4 mph - N/A   Clear
1:12 AM 71.6 °F 51.8 °F 50% 29.69 in 10.0 mi South 8.1 mph - N/A   Clear
1:32 AM 69.8 °F 51.8 °F 53% 29.69 in 10.0 mi South 9.2 mph - N/A   Clear
1:52 AM 69.8 °F 51.8 °F 53% 29.68 in 10.0 mi South 9.2 mph - N/A   Clear
2:13 AM 69.8 °F 51.8 °F 53% 29.68 in 10.0 mi South 9.2 mph - N/A   Clear
2:32 AM 68.0 °F 51.8 °F 56% 29.68 in 10.0 mi South 9.2 mph - N/A   Clear
3:13 AM 66.2 °F 51.8 °F 60% 29.68 in 10.0 mi South 8.1 mph - N/A   Clear
3:32 AM 66.2 °F 51.8 °F 60% 29.67 in 10.0 mi South 9.2 mph - N/A   Clear
3:52 AM 66.2 °F 53.6 °F 64% 29.67 in 10.0 mi South 9.2 mph - N/A   Clear
4:12 AM 66.2 °F 53.6 °F 64% 29.67 in 10.0 mi SSE 6.9 mph - N/A   Clear
4:32 AM 64.4 °F 53.6 °F 68% 29.67 in 10.0 mi SSE 6.9 mph - N/A   Clear
4:52 AM 64.4 °F 53.6 °F 68% 29.66 in 10.0 mi SSE 5.8 mph - N/A   Clear
5:13 AM 62.6 °F 53.6 °F 72% 29.66 in 10.0 mi SSE 6.9 mph - N/A   Clear
5:32 AM 62.6 °F 51.8 °F 68% 29.66 in 10.0 mi SSE 8.1 mph - N/A   Clear
5:52 AM 62.6 °F 51.8 °F 68% 29.66 in 10.0 mi SSE 6.9 mph - N/A   Clear
6:12 AM 64.4 °F 51.8 °F 64% 29.66 in 10.0 mi SSE 6.9 mph - N/A   Clear
6:32 AM 64.4 °F 51.8 °F 64% 29.66 in 10.0 mi SSE 8.1 mph - N/A   Clear
6:52 AM 66.2 °F 53.6 °F 64% 29.66 in 10.0 mi SSE 8.1 mph - N/A   Clear
7:12 AM 69.8 °F 51.8 °F 53% 29.65 in 10.0 mi SSE 9.2 mph - N/A   Clear
7:32 AM 71.6 °F 51.8 °F 50% 29.65 in 10.0 mi SSE 12.7 mph - N/A   Clear
7:52 AM 71.6 °F 51.8 °F 50% 29.64 in 10.0 mi South 15.0 mph - N/A   Clear
8:12 AM 73.4 °F 51.8 °F 47% 29.64 in 10.0 mi South 15.0 mph - N/A   Clear
8:32 AM 75.2 °F 51.8 °F 44% 29.64 in 10.0 mi South 13.8 mph - N/A   Clear
8:52 AM 77.0 °F 51.8 °F 41% 29.64 in 10.0 mi South 16.1 mph - N/A   Clear
9:12 AM 78.8 °F 51.8 °F 39% 29.63 in 10.0 mi South 16.1 mph 20.7 mph N/A   Clear
9:32 AM 78.8 °F 51.8 °F 39% 29.63 in 10.0 mi South 17.3 mph - N/A   Clear
9:53 AM 80.6 °F 50.0 °F 34% 29.63 in 10.0 mi South 18.4 mph 24.2 mph N/A   Clear
10:13 AM 82.4 °F 51.8 °F 35% 29.63 in 10.0 mi South 18.4 mph - N/A   Clear
10:32 AM 84.2 °F 51.8 °F 33% 29.62 in 10.0 mi SSW 23.0 mph - N/A   Clear
10:52 AM 84.2 °F 51.8 °F 33% 29.62 in 10.0 mi South 16.1 mph 25.3 mph N/A   Clear
11:12 AM 86.0 °F 51.8 °F 31% 29.62 in 10.0 mi South 19.6 mph 25.3 mph N/A   Clear
11:32 AM 87.8 °F 51.8 °F 29% 29.61 in 10.0 mi South 17.3 mph 25.3 mph N/A   Clear
11:52 AM 87.8 °F 51.8 °F 29% 29.61 in 10.0 mi South 15.0 mph 26.5 mph N/A   Clear
12:12 PM 87.8 °F 51.8 °F 29% 29.60 in 10.0 mi South 20.7 mph 25.3 mph N/A   Clear
12:32 PM 89.6 °F 50.0 °F 26% 29.60 in 10.0 mi South 19.6 mph 24.2 mph N/A   Clear
12:52 PM 89.6 °F 48.2 °F 24% 29.60 in 10.0 mi SSE 19.6 mph 28.8 mph N/A   Clear
1:12 PM 89.6 °F 48.2 °F 24% 29.59 in 10.0 mi South 23.0 mph 29.9 mph N/A   Clear
1:33 PM 91.4 °F 48.2 °F 23% 29.59 in 10.0 mi South 20.7 mph 26.5 mph N/A   Clear
1:53 PM 91.4 °F 48.2 °F 23% 29.58 in 10.0 mi South 25.3 mph 31.1 mph N/A   Clear
2:12 PM 91.4 °F 46.4 °F 21% 29.58 in 10.0 mi South 25.3 mph 33.4 mph N/A   Clear
2:32 PM 93.2 °F 46.4 °F 20% 29.56 in 10.0 mi South 25.3 mph 34.5 mph N/A   Clear
2:52 PM 93.2 °F 46.4 °F 20% 29.56 in 10.0 mi South 21.9 mph 29.9 mph N/A   Clear
3:12 PM 93.2 °F 46.4 °F 20% 29.56 in 10.0 mi South 23.0 mph 29.9 mph N/A   Clear
3:32 PM 93.2 °F 46.4 °F 20% 29.55 in 10.0 mi South 25.3 mph 29.9 mph N/A   Clear
3:53 PM 93.2 °F 44.6 °F 19% 29.55 in 10.0 mi South 18.4 mph 34.5 mph N/A   Clear
4:13 PM 93.2 °F 44.6 °F 19% 29.54 in 10.0 mi South 19.6 mph 29.9 mph N/A   Clear
4:32 PM 93.2 °F 46.4 °F 20% 29.54 in 10.0 mi South 24.2 mph 34.5 mph N/A   Clear
4:52 PM 93.2 °F 44.6 °F 19% 29.53 in 10.0 mi South 25.3 mph 31.1 mph N/A   Clear
5:12 PM 93.2 °F 44.6 °F 19% 29.53 in 10.0 mi South 27.6 mph 35.7 mph N/A   Clear
5:32 PM 93.2 °F 46.4 °F 20% 29.53 in 10.0 mi South 27.6 mph 33.4 mph N/A   Clear
5:52 PM 91.4 °F 44.6 °F 20% 29.53 in 10.0 mi South 23.0 mph 33.4 mph N/A   Clear
6:12 PM 91.4 °F 44.6 °F 20% 29.53 in 10.0 mi South 25.3 mph 33.4 mph N/A   Clear
6:32 PM 91.4 °F 46.4 °F 21% 29.52 in 10.0 mi South 25.3 mph 32.2 mph N/A   Clear
6:52 PM 89.6 °F 46.4 °F 22% 29.53 in 10.0 mi South 21.9 mph 33.4 mph N/A   Clear
7:12 PM 89.6 °F 46.4 °F 22% 29.53 in 10.0 mi South 21.9 mph - N/A   Clear
7:32 PM 89.6 °F 46.4 °F 22% 29.53 in 10.0 mi South 18.4 mph 25.3 mph N/A   Clear
7:52 PM 87.8 °F 46.4 °F 24% 29.53 in 10.0 mi South 17.3 mph - N/A   Clear
8:12 PM 87.8 °F 46.4 °F 24% 29.54 in 10.0 mi South 17.3 mph 21.9 mph N/A   Clear
8:32 PM 86.0 °F 46.4 °F 25% 29.55 in 10.0 mi South 17.3 mph 21.9 mph N/A   Clear
8:53 PM 84.2 °F 46.4 °F 27% 29.55 in 10.0 mi South 16.1 mph 24.2 mph N/A   Clear
9:12 PM 82.4 °F 46.4 °F 28% 29.56 in 10.0 mi South 12.7 mph 18.4 mph N/A   Clear
9:32 PM 82.4 °F 46.4 °F 28% 29.57 in 10.0 mi South 11.5 mph - N/A   Clear
9:52 PM 80.6 °F 48.2 °F 32% 29.57 in 10.0 mi SSE 10.4 mph - N/A   Mostly Cloudy
10:12 PM 80.6 °F 46.4 °F 30% 29.58 in 10.0 mi South 11.5 mph - N/A   Overcast
10:32 PM 80.6 °F 48.2 °F 32% 29.58 in 10.0 mi SSE 11.5 mph - N/A   Overcast
11:52 PM 80.6 °F 46.4 °F 30% 29.56 in 10.0 mi South 17.3 mph 23.0 mph N/A   Scattered Clouds